Location: Newark
(45.5167°N, 11.1667°E)
Time: 09:51:21
(UTC+00:00)

N. Korean satellite - Visible Passes

Search period start: 19 November 2019 00:00
Search period end: 29 November 2019 00:00
Orbit: 456 x 506 km, 97.2° (Epoch: 18 November)

Date Brightness Start Highest point End Pass type
(mag) Time Alt. Az. Time Alt. Az. Time Alt. Az.
19 Nov 8.8 04:35:42 10° NE 04:38:58 29° E 04:42:11 10° SSE visible
19 Nov 8.3 16:46:06 10° SSW 16:49:31 38° W 16:52:59 10° NNW visible
20 Nov 9.9 04:11:10 10° NE 04:13:24 15° E 04:15:36 10° SE visible
20 Nov 7.1 05:43:29 10° N 05:46:59 40° WNW 05:50:25 10° SW visible
20 Nov 6.8 16:20:26 10° S 16:24:04 80° WSW 16:27:48 10° NNW visible
21 Nov 6.5 05:17:56 10° N 05:21:40 83° WNW 05:25:19 10° SSW visible
21 Nov 10.1 17:30:46 10° WSW 17:32:25 13° W 17:34:05 10° WNW visible
22 Nov 7.8 04:52:39 10° NNE 04:56:15 46° E 04:59:46 10° S visible
22 Nov 9.2 17:03:47 10° SSW 17:06:48 24° W 17:09:52 10° NW visible
23 Nov 9.2 04:27:43 10° NE 04:30:44 23° E 04:33:42 10° SSE visible
23 Nov 7.8 16:37:44 10° S 16:41:17 47° W 16:44:54 10° NNW visible
24 Nov 10.1 04:03:34 10° ENE 04:05:07 12° E 04:06:38 10° ESE visible
24 Nov 6.8 05:35:14 10° N 05:38:49 49° WNW 05:42:19 10° SSW visible
24 Nov 6.6 16:12:12 10° SSE 16:15:52 82° ENE 16:19:36 10° N visible
25 Nov 6.7 05:09:45 10° NNE 05:13:27 78° ESE 05:17:04 10° S visible
25 Nov 9.9 17:21:50 10° SW 17:24:07 16° W 17:26:25 10° NW visible
26 Nov 8.2 04:44:33 10° NNE 04:48:00 37° E 04:51:21 10° SSE visible
26 Nov 8.8 16:55:16 10° SSW 16:58:32 29° W 17:01:50 10° NNW visible
27 Nov 9.5 04:19:46 10° NE 04:22:26 19° E 04:25:03 10° SE visible
27 Nov 7.4 05:52:37 10° N 05:55:54 31° WNW 05:59:06 10° SW visible
27 Nov 7.3 16:29:24 10° S 16:33:03 60° W 16:36:45 10° NNW visible
28 Nov 6.5 05:26:58 10° N 05:30:35 63° WNW 05:34:08 10° SSW visible
28 Nov 6.6 16:03:59 10° SSE 16:07:38 65° ENE 16:11:21 10° N visible
